Chicago Executive, IL

9:16 PM CST on December 11, 2019 (GMT -0600)
Chicago Executive

Weather History for KPWK - September, 2019

Change the Weather History Date:

Friday, September 6, 2019

  Actual Average Record
Temperature  
Mean Temperature 68 °F 68 °F  
Max Temperature 73 °F 78 °F 94 °F (1998)
Min Temperature 62 °F 59 °F 46 °F (2000)
Degree Days  
Heating Degree Days 0 1  
Month to date heating degree days 1 6  
Since 1 July heating degree days 1 16  
Cooling Degree Days 3 4  
Month to date cooling degree days 24 29  
Year to date cooling degree days 831 726  
Growing Degree Days 18 (Base 50)    
Moisture  
Dew Point 59 °F    
Average Humidity 69    
Maximum Humidity 78    
Minimum Humidity 63    
Precipitation  
Precipitation 0.00 in 0.11 in 0.49 in (2001)
Month to date precipitation 0.41 0.64  
Year to date precipitation 29.73 23.12  
Sea Level Pressure  
Sea Level Pressure 29.95 in    
Wind  
Wind Speed 9 mph ()    
Max Wind Speed 18 mph    
Max Gust Speed 28 mph    
Visibility 10.0 miles    
Events      
T = Trace of Precipitation, MM = Missing Value Source: Averaged Metar Reports

Daily Weather History Graph

Daily Weather History Graph

Search for Another Location

Airport or City:

Astronomy

Sep. 06, 2019 Rise Set
Actual Time 6:22 AM CDT 7:17 PM CDT
Civil Twilight 5:53 AM CDT 7:45 PM CDT
Nautical Twilight 5:19 AM CDT 8:19 PM CDT
Astronomical Twilight 4:44 AM CDT 8:54 PM CDT
Moon 2:38 PM CDT (9/6) No Moon Set
Length of Visible Light 13h 52m
Length of Day
12h 55m
First Quarter, 56% of the Moon is Illuminated
Sep 6
First Quarter
Sep 13
Full
Sep 21
Last Quarter
Sep 28
New
Oct 5
First Quarter

Hourly Weather History & Observations

Time (CDT) Temp. Dew Point Humidity Pressure Visibility Wind Dir Wind Speed Gust Speed Precip Events Conditions
12:52 AM 66.9 °F 55.9 °F 68% 29.99 in 10.0 mi South 5.8 mph - N/A   Overcast
1:52 AM 66.9 °F 55.9 °F 68% 29.96 in 10.0 mi South 8.1 mph - N/A   Overcast
2:52 AM 66.9 °F 55.9 °F 68% 29.93 in 10.0 mi South 6.9 mph - N/A   Overcast
3:52 AM 66.9 °F 55.9 °F 68% 29.91 in 10.0 mi South 5.8 mph - N/A   Overcast
4:52 AM 68.0 °F 55.9 °F 65% 29.89 in 10.0 mi South 8.1 mph - N/A   Overcast
5:52 AM 68.0 °F 57.0 °F 68% 29.87 in 10.0 mi SSW 5.8 mph - N/A   Overcast
6:37 AM 69.1 °F 57.9 °F 68% 29.89 in 10.0 mi SW 8.1 mph - N/A   Mostly Cloudy
6:52 AM 69.1 °F 57.9 °F 68% 29.88 in 10.0 mi SW 5.8 mph - N/A   Overcast
7:52 AM 70.0 °F 60.1 °F 71% 29.88 in 10.0 mi WSW 8.1 mph - N/A   Overcast
8:37 AM 70.0 °F 62.1 °F 76% 29.89 in 10.0 mi West 10.4 mph - N/A   Overcast
8:52 AM 70.0 °F 62.1 °F 76% 29.88 in 10.0 mi West 11.5 mph - N/A   Overcast
9:52 AM 70.0 °F 63.0 °F 78% 29.88 in 10.0 mi NW 15.0 mph - N/A   Overcast
10:30 AM 72.0 °F 63.0 °F 73% 29.90 in 10.0 mi NNW 16.1 mph - N/A   Overcast
10:52 AM 72.0 °F 62.1 °F 71% 29.90 in 10.0 mi NNW 15.0 mph - N/A   Overcast
11:13 AM 73.9 °F 62.1 °F 66% 29.90 in 10.0 mi NW 15.0 mph 23.0 mph N/A   Overcast
11:52 AM 72.0 °F 61.0 °F 68% 29.90 in 10.0 mi NNW 15.0 mph 24.2 mph N/A   Overcast
11:59 AM 72.0 °F 61.0 °F 68% 29.92 in 10.0 mi NNW 12.7 mph 26.5 mph N/A   Overcast
12:35 PM 73.0 °F 61.0 °F 66% 29.93 in 10.0 mi NNW 15.0 mph 23.0 mph N/A   Overcast
12:52 PM 72.0 °F 61.0 °F 68% 29.92 in 10.0 mi NW 13.8 mph - N/A   Overcast
1:42 PM 71.1 °F 60.1 °F 68% 29.95 in 10.0 mi NNW 15.0 mph 23.0 mph N/A   Overcast
1:52 PM 71.1 °F 60.1 °F 68% 29.94 in 10.0 mi NNW 13.8 mph - N/A   Overcast
2:20 PM 70.0 °F 57.9 °F 65% 29.96 in 10.0 mi NNW 13.8 mph 27.6 mph N/A   Overcast
2:31 PM 71.1 °F 57.9 °F 63% 29.96 in 10.0 mi NNW 15.0 mph 25.3 mph N/A   Overcast
2:52 PM 70.0 °F 57.9 °F 65% 29.96 in 10.0 mi NNW 13.8 mph - N/A   Overcast
3:09 PM 70.0 °F 57.9 °F 65% 29.96 in 10.0 mi NW 13.8 mph 23.0 mph N/A   Overcast
3:52 PM 70.0 °F 57.0 °F 63% 29.96 in 10.0 mi NNW 10.4 mph 17.3 mph N/A   Overcast
4:35 PM 70.0 °F 57.0 °F 63% 29.98 in 10.0 mi NNW 9.2 mph - N/A   Overcast
4:52 PM 70.0 °F 57.0 °F 63% 29.98 in 10.0 mi NNW 10.4 mph - N/A   Overcast
5:52 PM 70.0 °F 57.9 °F 65% 30.00 in 10.0 mi North 6.9 mph - N/A   Overcast
6:52 PM 66.9 °F 57.0 °F 70% 30.01 in 10.0 mi NNE 5.8 mph - N/A   Overcast
7:52 PM 66.9 °F 57.0 °F 70% 30.03 in 10.0 mi NE 3.5 mph - N/A   Overcast
8:52 PM 66.0 °F 57.0 °F 73% 30.05 in 10.0 mi North 6.9 mph - N/A   Overcast
9:52 PM 66.0 °F 57.0 °F 73% 30.06 in 10.0 mi North 8.1 mph - N/A   Overcast
10:52 PM 64.9 °F 55.9 °F 73% 30.06 in 10.0 mi North 8.1 mph - N/A   Overcast
11:52 PM 64.0 °F 54.0 °F 70% 30.05 in 10.0 mi North 8.1 mph - N/A   Mostly Cloudy